Location: Ariel
(45.9570°N, 122.5700°W)
Time: 06:15:34
(UTC-08:00)

Transit 4A - Pass Details

Date: 07 November 2020
Orbit: 862 x 982 km, 66.8° (Epoch: 03 December)

Event Time Altitude Azimuth Distance (km) Brightness Sun altitude
Rises 17:32:58 0° 313° (NW) 3,686 11.5 -8.3°
Reaches altitude 10° 17:38:11 10° 348° (NNW) 2,745 10.3 -9.2°
Maximum altitude 17:39:47 11° 3° (N) 2,679 10.1 -9.5°
Drops below altitude 10° 17:41:23 10° 18° (NNE) 2,744 10.1 -9.7°
Enters shadow 17:44:14 - 40° (NE) 3,150 10.2 -10.2°
